Content
SEND FEEDBACK

Daily
Averages
Monthly
Summary
United States of America

JUD, NORTH DAKOTA


Home > North America > United States > North Dakota
Elevation: 1510 feet     Latitude: 46 33N     Longitude: 098 44W

WEATHER
 
SELECT A DAY
Number of Records: 203,639;   Date Range: 1/1/95 - 7/7/14
 
SHARE

PRINT THIS DATA

[ ← Previous Day ]
WEATHER ALMANAC - JANUARY 31, 2013
[ Next Day → ]
[ °C ]   °F
Weather ElementAverageHighLow
Temperature-14.5 °F-9 °F (3:56 pm)-17 °F (4:56 am)
Dewpoint-22.9 °F-18.9 °F (2:56 pm)-25.6 °F (5:40 am)
Humidity66.3 %71 % (10:56 pm)59 % (3:56 pm)
Barometer30.28 in30.41 in (7:56 pm)29.99 in (2:21 am)
Wind Speed18.7 mph23 mph (6:56 am)
Wind Gust31.1 mph (7:04 am)
Weather ElementAverage
Visibility9.1 mi
Wind DirectionNW (310.4 °)

Weather ElementTotal
Precipitation---
Heating Degree Days78 (Base 65)
Averaged from 27 records on January 31, 2013
WEATHER CONDITIONS BREAKOUT
WIND DIRECTION BREAKOUT
WEATHER BY HOUR - JANUARY 31, 2013
[ °C ]   °F
Local TimeTemperatureDewpointHumidityBarometerVisibilityWind DirectionWind SpeedGust SpeedPrecipitationEventsConditions
1:56 AM-16.1 °F-24.0 °F67 %30.14 in10.0 miNW (320°)21.9 mphClear
2:21 AM-16.6 °F-23.8 °F70 %29.99 in7.0 miNW (310°)20.7 mphMostly Cloudy
2:56 AM-16.1 °F-24.0 °F67 %30.15 in9.0 miNW (310°)18.4 mphOvercast
3:07 AM-16.6 °F-23.8 °F70 %30.01 in10.0 miNW (310°)20.7 mph27.6 mphOvercast
3:56 AM-16.1 °F-24.0 °F67 %30.17 in9.0 miNW (320°)20.7 mph0.00 inOvercast
4:56 AM-17.0 °F-24.0 °F70 %30.20 in10.0 miNW (320°)20.7 mphMostly Cloudy
5:40 AM-16.6 °F-25.6 °F64 %30.06 in7.0 miNW (320°)20.7 mphMostly Cloudy
5:56 AM-17.0 °F-24.0 °F70 %30.23 in5.0 miNW (320°)20.7 mph28.8 mphHaze
6:51 AM-16.6 °F-23.8 °F70 %30.10 in6.0 miNW (320°)21.9 mphHaze
6:56 AM-17.0 °F-24.0 °F70 %30.27 in6.0 miNW (320°)23.0 mphHaze
7:04 AM-16.6 °F-23.8 °F70 %30.11 in7.0 miNW (320°)23.0 mph31.1 mphScattered Clouds
7:56 AM-17.0 °F-25.1 °F67 %30.31 in10.0 miNW (320°)20.7 mphPartly Cloudy
8:56 AM-17.0 °F-25.1 °F67 %30.34 in10.0 miNW (320°)23.0 mph28.8 mphClear
9:56 AM-16.1 °F-24.0 °F67 %30.37 in10.0 miNW (310°)20.7 mph28.8 mphClear
10:56 AM-14.1 °F-23.1 °F64 %30.39 in10.0 miNW (320°)17.3 mph27.6 mphClear
11:56 AM-13.0 °F-22.0 °F64 %30.40 in10.0 miNW (310°)21.9 mphClear
12:56 PM-11.0 °F-20.0 °F64 %30.40 in10.0 miNW (310°)21.9 mphClear
1:56 PM-9.9 °F-20.0 °F61 %30.39 in10.0 miNW (310°)23.0 mphClear
2:56 PM-9.9 °F-18.9 °F65 %30.39 in10.0 miNW (320°)20.7 mphClear
3:56 PM-9.0 °F-20.0 °F59 %30.39 in10.0 miNW (310°)20.7 mphClear
4:56 PM-9.9 °F-20.0 °F61 %30.40 in10.0 miNW (310°)17.3 mphClear
5:56 PM-11.0 °F-20.9 °F62 %30.40 in10.0 miWNW (300°)12.7 mphClear
6:56 PM-13.0 °F-22.0 °F64 %30.40 in10.0 miWNW (290°)11.5 mphClear
7:56 PM-13.0 °F-22.0 °F64 %30.41 in10.0 miWNW (290°)13.8 mphClear
8:56 PM-15.0 °F-23.1 °F67 %30.40 in10.0 miWNW (290°)10.4 mphClear
9:56 PM-15.0 °F-23.1 °F67 %30.40 in10.0 miWNW (290°)8.1 mphClear
10:56 PM-16.1 °F-23.1 °F71 %30.38 in10.0 miWNW (290°)9.2 mphClear
Hourly data recorded from KJMS, located miles away from Jud, North Dakota







STORIES FROM OUR PARTNERS